Tracking 19226 objects as of 23-Jul-2018
HD Live streaming from Space Station
objects crossing your sky now

FENGYUN 1C DEB

Track FENGYUN 1C DEB now!
10-day predictions


NORAD ID: 35240
Int'l Code: 1999-025DQY
Perigee: 831.3 km
Apogee: 915.4 km
Inclination: 99.4 °
Period: 102.3 minutes
Semi major axis: 7244 km
RCS: 0.0037 m2 (small)
Launch date: May 10, 1999
Source: People's Republic of China (PRC)
Launch site: Taiyaun Space Center, China (TSC)

Note: This is SATELLITE DEBRIS
aabbcc
Your satellite tracking list
Your tracking list is empty




NASA's NSSDC Master Catalog

Two Line Element Set (TLE):
1 35240U 99025DQY 18203.41295497  .00000517  00000-0  32709-3 0  9991
2 35240  99.3970  11.0189 0058059 119.1898 241.5094 14.08015094550554
Source of the keplerian elements: AFSPC